Torna al catalogo

STARLINK-2139

AttivoComunicazioniVLEO
NORAD 48554·PAYLOAD·🇺🇸 United States

Lanciato May 15, 2021 da Cape Canaveral Space Force Station

Loading…

Prossimi Passaggi (prossime 24 ore)

TLE

AggiornatoSource: CelesTrak SupGP

Epoca: Sep 14, 2026, 13:01 UTC

1 48554C 21041B   26257.54284722  .00012951  00000+0  41652-3 0  2575
2 48554  53.1602 327.8302 0001255  76.9902  64.8949 15.31691133    10

Traccia STARLINK-2139 in tempo reale con AllMySat

Download on the App Store